Dewpoint
66 69 72 73 73 73 73 72 71 71 71 67 68 66 69 72 72 72 72 70 71 72 71 71 70 72 71 71 72 70 69 70 66 66 69 68 69 69 70 75 73 73 71
66 69 72 72 73 73 73 73 72 71 71 69 66 65 68 72 72 71 71 70 71 70 71 71 70 71 70 72 71 71 70 70 68 66 69 70 71 70 70 74 73 73 70
69 69 71 72 73 73 73 73 73 72 71 69 69 70 72 72 72 73 73 72 71 72 72 72 70 70 70 71 70 71 71 72 71 70 69 71 70 70 71 69 66 69 67
68 68 68 68 71 72 73 74 74 73 73 73 72 73 71 72 73 72 73 73 72 72 72 71 72 72 71 71 71 70 71 71 70 70 70 69 70 70 69 66 66 69 66
65 66 67 68 68 69 71 72 72 73 73 73 73 74 74 73 72 72 72 73 72 71 71 73 73 72 72 72 72 71 71 71 71 71 69 66 65 68 68 69 68 69 67
63 64 66 67 67 68 68 68 72 72 72 73 73 72 72 74 68 66 71 71 73 71 70 71 72 73 72 69 68 68 70 68 67 69 69 68 67 68 69 69 70 69 67
61 62 64 65 65 66 67 67 68 68 71 71 71 72 73 73 67 65 64 69 71 73 73 72 71 69 69 71 69 65 65 66 66 66 65 67 68 69 69 68 68 69 69
61 62 61 61 62 64 65 66 66 67 68 69 71 72 72 73 67 64 65 66 68 69 70 72 72 70 70 72 73 73 70 68 68 67 67 67 67 67 69 69 70 70 71
56 56 57 58 62 60 60 63 64 66 67 67 69 68 69 72 67 63 65 69 69 69 69 70 71 71 69 67 71 71 72 73 70 66 66 66 66 66 68 72 71 69 69
54 55 56 57 58 57 60 60 61 62 64 66 66 66 66 69 66 62 63 70 71 70 71 71 66 67 64 64 69 71 71 71 72 71 70 67 66 68 66 68 69 69 69
53 53 55 55 55 55 57 61 62 61 61 61 63 64 66 66 67 63 60 67 70 71 71 72 71 61 57 56 57 66 67 66 68 71 71 71 72 72 71 70 69 70 69
53 52 53 54 54 53 55 56 59 62 62 61 61 62 65 65 63 62 57 57 60 67 69 71 70 57 55 55 59 59 58 60 65 65 67 68 69 69 70 70 71 70 69
50 50 51 53 53 54 55 54 53 57 60 61 57 54 55 55 56 57 56 58 59 63 65 62 58 56 56 61 58 58 59 62 63 63 64 65 65 67 68 67 66 67 71
49 49 49 49 49 50 52 53 53 53 54 57 57 55 54 54 54 62 60 60 58 62 62 60 59 58 57 60 62 66 68 68 67 66 66 66 66 66 67 68 67 67 65
48 48 48 49 48 48 48 50 50 50 51 50 54 56 55 54 53 54 53 55 57 57 54 58 58 59 61 62 65 68 70 70 69 67 67 67 66 66 66 67 67 67 66
47 48 49 49 48 48 48 48 47 46 45 44 44 46 48 51 48 46 44 44 46 48 55 56 57 58 60 62 63 65 68 69 71 71 70 69 69 69 67 68 69 68 67
43 44 45 46 48 47 47 47 46 46 45 44 43 43 43 45 45 44 43 42 44 46 51 55 55 58 62 64 65 66 66 68 70 71 71 71 71 71 69 70 70 69 68
43 45 44 45 45 45 46 46 46 46 46 47 46 45 45 43 43 43 41 45 54 49 53 56 58 61 61 62 64 65 66 66 69 71 70 70 68 67 66 67 66 64 66
43 42 43 42 42 44 44 45 45 46 46 47 47 47 46 44 43 41 42 52 55 55 58 58 57 58 59 60 60 62 64 66 69 70 69 70 69 67 66 66 65 59 61
42 46 45 42 42 42 41 43 44 45 45 46 46 46 47 48 49 51 51 53 56 57 55 55 55 55 55 55 56 59 60 63 65 66 69 69 69 68 67 65 64 63 64
39 39 41 40 41 41 41 41 42 44 44 45 46 47 45 47 50 51 55 57 55 53 52 53 53 52 52 53 53 55 57 58 59 62 64 65 67 66 65 67 67 67 67
38 38 38 37 39 40 40 39 40 41 42 44 44 45 44 48 51 50 50 50 50 49 49 48 48 49 50 50 51 50 51 53 55 58 58 60 62 63 64 65 66 66 67
36 34 35 35 36 38 38 38 39 39 40 42 43 43 46 48 48 49 49 48 47 46 46 46 46 47 47 48 48 47 48 49 51 52 52 54 57 59 61 62 63 64 64
34 34 34 34 35 35 36 37 37 38 38 39 41 42 44 46 47 47 47 47 46 46 44 45 45 44 44 44 44 44 44 45 45 44 46 49 53 55 59 60 61 62 63
35 35 34 34 33 34 35 36 36 37 37 37 38 39 40 42 44 45 45 45 44 43 43 42 42 41 41 41 40 41 39 34 36 36 41 46 50 55 57 60 61 63 64
38 37 35 35 34 35 35 35 36 36 36 37 37 38 40 40 42 42 43 43 42 41 41 41 40 39 38 38 38 36 33 32 34 33 38 45 50 55 58 58 60 60 59
Lifted_Index
-3 -3 -4 -5 -5 -5 -5 -5 -4 -4 -3 -2 -3 -3 -4 -4 -4 -4 -4 -4 -4 -4 -4 -4 -4 -4 -4 -4 -4 -4 -4 -5 -4 -4 -4 -4 -5 -5 -5 -6 -6 -6 -6
-2 -3 -4 -5 -5 -5 -5 -5 -4 -4 -3 -3 -3 -3 -4 -4 -4 -4 -4 -4 -4 -4 -4 -4 -4 -4 -4 -4 -4 -4 -4 -5 -5 -4 -4 -5 -5 -5 -5 -6 -6 -5 -5
-1 -2 -4 -5 -5 -5 -6 -6 -5 -4 -4 -4 -4 -4 -4 -4 -5 -5 -4 -4 -4 -4 -4 -4 -4 -4 -4 -4 -4 -4 -4 -4 -5 -4 -4 -5 -5 -5 -5 -4 -4 -4 -3
-1 -2 -3 -4 -5 -5 -6 -6 -6 -5 -5 -5 -5 -5 -5 -5 -5 -5 -5 -4 -4 -4 -4 -4 -4 -4 -4 -4 -4 -4 -4 -4 -4 -4 -4 -4 -4 -4 -4 -4 -3 -3 -3
-1 -1 -2 -3 -4 -5 -5 -5 -6 -6 -5 -5 -5 -5 -5 -5 -4 -4 -4 -4 -4 -4 -4 -4 -4 -4 -4 -4 -4 -4 -4 -3 -4 -4 -4 -3 -3 -3 -3 -3 -3 -3 -3
-1 -1 -2 -2 -3 -3 -4 -5 -5 -5 -5 -5 -5 -5 -5 -5 -4 -4 -4 -4 -4 -4 -4 -4 -4 -4 -4 -4 -4 -3 -3 -3 -2 -2 -2 -2 -2 -2 -2 -3 -3 -3 -3
-0 -1 -1 -1 -2 -2 -3 -4 -4 -5 -5 -5 -5 -5 -5 -5 -4 -4 -3 -3 -3 -4 -4 -4 -4 -4 -4 -4 -4 -4 -3 -3 -2 -2 -1 -1 -1 -1 -2 -2 -2 -3 -3
1 1 1 -0 -1 -1 -2 -3 -3 -4 -4 -4 -4 -4 -4 -4 -4 -4 -4 -3 -3 -3 -3 -3 -4 -3 -3 -3 -4 -4 -3 -3 -3 -3 -3 -2 -2 -2 -2 -2 -3 -3 -3
4 4 3 2 1 1 -0 -1 -2 -2 -3 -3 -4 -4 -4 -4 -4 -4 -4 -3 -3 -3 -3 -3 -3 -3 -3 -3 -3 -3 -3 -4 -4 -4 -4 -4 -4 -3 -3 -3 -3 -3 -3
7 7 7 6 5 4 3 2 1 0 -1 -1 -2 -2 -2 -2 -3 -3 -3 -3 -3 -3 -3 -3 -3 -3 -3 -3 -2 -3 -3 -3 -3 -3 -4 -4 -4 -4 -4 -4 -3 -3 -3
8 9 9 8 8 7 6 5 4 3 2 1 1 0 -0 -1 -1 -2 -2 -3 -3 -3 -3 -3 -3 -3 -3 -3 -3 -3 -3 -3 -3 -3 -3 -3 -4 -4 -4 -4 -3 -3 -3
10 9 9 9 9 9 8 8 6 5 4 3 3 3 2 1 1 -0 -1 -2 -2 -2 -2 -3 -3 -3 -3 -3 -3 -3 -3 -2 -2 -2 -2 -2 -3 -3 -4 -3 -3 -3 -2
11 10 10 10 10 9 9 9 8 7 5 5 4 5 5 4 4 2 1 0 -1 -1 -2 -2 -2 -2 -2 -3 -3 -3 -2 -2 -2 -2 -2 -2 -2 -2 -3 -3 -3 -2 -2
11 11 11 11 10 10 10 10 9 9 7 6 6 6 6 6 6 6 5 5 3 2 1 -0 -1 -1 -1 -2 -2 -2 -2 -2 -2 -2 -2 -2 -2 -2 -2 -2 -3 -2 -2
11 11 10 10 10 10 10 10 10 10 9 8 7 7 7 7 8 8 8 8 7 6 5 3 2 2 1 0 -0 -1 -2 -2 -2 -2 -2 -2 -2 -2 -2 -2 -3 -3 -2
11 11 10 10 10 10 10 10 10 10 10 9 8 8 8 8 8 8 8 8 8 8 7 7 6 5 4 2 1 -0 -1 -2 -3 -3 -3 -3 -3 -3 -3 -3 -3 -3 -3
12 11 11 10 10 9 9 9 9 9 9 9 8 8 8 8 7 8 8 8 8 8 8 8 7 6 5 3 2 1 -0 -1 -2 -2 -3 -3 -3 -3 -3 -3 -2 -2 -2
12 12 11 11 10 10 10 10 9 9 9 9 9 8 8 8 7 7 8 8 8 7 7 7 7 6 6 5 4 2 1 -0 -1 -2 -2 -3 -3 -3 -3 -2 -1 -1 -1
12 12 12 12 12 11 11 10 10 9 9 9 8 8 8 8 7 7 7 7 7 6 6 6 7 8 8 8 7 5 3 1 0 -1 -2 -2 -2 -2 -1 -1 -0 0 1
11 11 12 12 12 12 12 11 10 10 9 9 8 8 8 7 7 7 6 6 5 5 6 6 7 9 10 10 10 8 6 3 1 0 -0 -1 -1 -1 -0 0 0 1 1
11 12 12 13 13 12 12 12 11 10 9 9 8 8 7 7 7 6 6 5 5 5 6 7 8 9 10 11 10 9 7 5 3 2 1 0 0 0 1 1 1 0 0
12 12 12 13 13 13 13 12 12 11 11 10 9 8 8 7 7 6 6 5 5 5 6 7 7 9 10 11 10 9 8 6 5 3 2 1 1 1 1 1 1 1 0
12 12 12 13 13 13 13 13 13 13 12 11 10 10 9 8 7 7 6 6 6 6 7 7 8 9 10 10 10 10 9 7 5 4 2 2 2 2 2 2 2 2 2
11 11 12 13 13 13 14 14 14 14 13 13 12 11 10 9 9 8 7 7 7 7 8 8 8 9 10 10 10 10 9 7 6 4 3 2 1 1 2 2 2 3 3
10 10 11 12 13 13 13 13 14 14 13 13 13 12 11 10 10 9 8 8 8 8 8 9 9 9 10 10 10 10 9 8 6 4 3 2 1 1 1 1 2 2 3
9 9 10 11 12 12 13 13 13 13 13 13 13 13 12 11 10 10 9 8 8 8 9 9 9 9 10 10 10 10 9 8 6 5 3 2 1 1 0 1 1 2 2